Regional Weather Roundup
Issued by NWS

Home | Current Version | Previous Version | Text Only | Print | Product List | Glossary Off
Versions: 1 2 3 4 5 6 7 8 9 10 11 12 13 14 15 16 17 18 19 20 21 22 23 24 25 26 27 28 29 30 31 32 33 34 35 36 37 38 39 40 41 42 43 44 45 46 47 48 49 50

000
ASUS43 KLSX 050307
RWRMO

WEATHER SUMMARY FOR MISSOURI
NATIONAL WEATHER SERVICE SPRINGFIELD MO
1000 PM CDT SAT JUL 04 2015

NOTE: "FAIR" INDICATES FEW OR NO CLOUDS BELOW 12,000 FEET WITH NO
       SIGNIFICANT WEATHER AND/OR OBSTRUCTIONS TO VISIBILITY.
       CURRENT SKY AND/OR WEATHER CONDITIONS ARE NOT AVAILABLE FOR
       CHILLICOTHE AND FARMINGTON.

MOZ001>031-035>038-043-044-053-054-050400-
...NORTHERN AND WESTERN MISSOURI...

CITY           SKY/WX    TMP DP  RH WIND       PRES   REMARKS
KANSAS CTY INT PTCLDY    71  64  78 SE6       29.97R
KANSAS C DTWN  PTCLDY    77  63  61 SE7       29.96R
LEE`S SUMMIT   PTCLDY    74  64  71 CALM      29.98R
ST JOSEPH      PTCLDY    73  64  73 SE7       29.95R
CHILLICOTHE      N/A     70  65  84 CALM      29.99R
KIRKSVILLE     CLEAR     67  62  84 SE3       30.01R

$$
MOZ066>068-077>081-088>096-101>105-050400-
...SOUTHWEST MISSOURI...

CITY           SKY/WX    TMP DP  RH WIND       PRES   REMARKS
SPRINGFIELD    MOCLDY    74  69  85 S3        29.99R
JOPLIN         CLEAR     76  67  73 E8        29.96R HAZE

$$
MOZ032>034-039>042-045>050-055>058-069>072-050400-
...CENTRAL MISSOURI...

CITY           SKY/WX    TMP DP  RH WIND       PRES   REMARKS
COLUMBIA       CLEAR     73  66  78 E6        30.01R
JEFFERSON CITY CLEAR     72  66  81 E5        29.99R
ROLLA          CLEAR     70  66  87 E5        30.01R
SEDALIA        PTCLDY    73  65  75 SE6       30.00R
WHITEMAN AFB   PTCLDY    72  67  83 SE3       29.97R
WARRENSBURG    PTCLDY    70  64  83 E7        29.97R
OSAGE BEACH    CLEAR     73  66  78 E5        30.00R

$$
MOZ051-052-059>065-050400-
...EAST CENTRAL MISSOURI...

CITY           SKY/WX    TMP DP  RH WIND       PRES   REMARKS
ST LOUIS INTL  PTCLDY    75  62  64 SE3       30.01R HAZE
SPIRIT OF STL  CLEAR     71  66  84 CALM      30.00R
ST CHARLES     CLEAR     71  66  84 CALM      30.00R

$$
MOZ072>076-082>087-097>100-106>115-050400-
...SOUTH CENTRAL AND SOUTHEAST MISSOURI...

CITY           SKY/WX    TMP DP  RH WIND       PRES   REMARKS
CAPE GIRARDEAU NOT AVBL
FARMINGTON     CLOUDY    72  66  83 CALM      30.06R
POPLAR BLUFF   MOCLDY    75  71  87 CALM      29.99R FOG
WEST PLAINS    CLEAR     72  68  87 SE3       30.03R

$$


USA.gov is the U.S. government's official web portal to all federal, state and local government web resources and services.